This demonstration page uses our WeatherBlox Daily Observations layout. Learn more.

Left ArrowRight Arrow

Hourly Observations for October 20, 2020

Temp ( °F °C ) Dew Point ( °F °C ) Humidity (%) Winds ( mph kmh ) Pressure ( in mb ) Visibility ( mi km ) Precip ( " mm )
12:53 am 00:53 Clear 67 19.4 59 15 76 76 SE 9 15 29.84 1011 10 16 0.00 0.00
1:53 am 01:53 Clear 65 18.3 59 15 81 81 SE 6 9 29.83 1010 10 16 0.00 0.00
2:53 am 02:53 Clear 61 16.1 58 14.4 90 90 ENE 6 9 29.83 1010 10 16 0.00 0.00
3:53 am 03:53 Clear 58 14.4 54 12.2 87 87 E 7 11 29.82 1010 10 16 0.00 0.00
4:53 am 04:53 Clear 57 13.9 53 11.7 87 87 ENE 3 6 29.81 1009 10 16 0.00 0.00
5:53 am 05:53 Clear 54 12.2 52 11.1 93 93 NE 5 7 29.81 1009 10 16 0.00 0.00
6:53 am 06:53 Clear 56 13.3 54 12.2 93 93 ENE 7 11 29.82 1010 10 16 0.00 0.00
7:53 am 07:53 Clear 57 13.9 55 12.8 93 93 ESE 5 7 29.84 1010 10 16 0.00 0.00
8:53 am 08:53 Sunny 59 15 56 13.3 90 90 ENE 3 6 29.86 1011 10 16 0.00 0.00
9:53 am 09:53 Sunny 66 18.9 58 14.4 75 75 SE 12 19 29.87 1012 10 16 0.00 0.00
10:53 am 10:53 Sunny 71 21.7 55 12.8 57 57 SSE 12 19 29.86 1011 10 16 0.00 0.00
11:53 am 11:53 Sunny 77 25 55 12.8 47 47 SSE 10 17 29.85 1011 10 16 0.00 0.00
12:53 pm 12:53 Sunny 83 28.3 50 10 32 32 SSE 10 17 29.81 1010 10 16 0.00 0.00
1:53 pm 13:53 Sunny 86 30 46 7.8 25 25 VRB 3 6 29.78 1009 10 16 0.00 0.00
2:53 pm 14:53 Sunny 89 31.7 45 7.2 22 22 S 8 13 29.76 1008 10 16 0.00 0.00
3:53 pm 15:53 Sunny 90 32.2 42 5.6 19 19 SSW 5 7 29.74 1007 10 16 0.00 0.00
4:53 pm 16:53 Sunny 92 33.3 35 1.7 13 13 Calm 29.72 1007 10 16 0.00 0.00
5:53 pm 17:53 Sunny 92 33.3 33 0.6 12 12 SSE 9 15 29.72 1006 10 16 0.00 0.00
6:53 pm 18:53 Sunny 88 31.1 32 0 13 13 SSE 8 13 29.72 1007 10 16 0.00 0.00
7:53 pm 19:53 Clear 81 27.2 44 6.7 27 27 SE 10 17 29.75 1007 10 16 0.00 0.00
8:53 pm 20:53 Clear 81 27.2 58 14.4 45 45 SSE 17 28 29.77 1008 10 16 0.00 0.00
9:53 pm 21:53 Clear 77 25 60 15.6 56 56 SE 14 22 29.78 1008 10 16 0.00 0.00
10:53 pm 22:53 Clear 75 23.9 61 16.1 62 62 SE 12 19 29.79 1009 10 16 0.00 0.00
11:53 pm 23:53 Clear 72 22.2 61 16.1 68 68 SE 10 17 29.79 1009 10 16 0.00 0.00

Powered by AerisWeather